Home   Weather   Schwerte   Past weeks

Flag for Germany Past Weather in Schwerte, North Rhine-Westphalia, Germany — Yesterday and Last 2 Weeks

Now
64 °F

Fog.


Feels Like: 64 °F
Forecast: 59 / 71 °F
Wind: 1 mph from North

Location: Duesseldorf

Current Time: May 29, 2017 at 4:17:41 am

Latest Report: May 29, 2017 at 3:20 am


Visibility: N/A

Pressure: 29.95 "Hg

Humidity: 94%

Dew Point: 63 °F

Location of SchwerteLocation

Past Weather in Schwerte — Graph

°F

Schwerte Temperature Yesterday

Maximum temperature yesterday: 82 °F (at 5:20 pm)
Minimum temperature yesterday: 63 °F (at 4:50 am)
Average temperature yesterday: 72 °F

High & Low Weather Summary for the Past Weeks

 TemperatureHumidityPressure
High88 °F (May 27, 3:20 pm)100% (May 14, 3:20 am)30.42 "Hg (May 14, 3:20 am)
Low46 °F (May 15, 6:50 am)23% (May 15, 7:20 pm)29.77 "Hg (May 19, 12:50 am)
Average65 °F63%30.12 "Hg
* Reported May 14 3:20 am — May 29 3:20 am, Schwerte. Weather by CustomWeather, © 2017

Note: Actual official high and low records may vary slightly from our data, if they occured in-between our weather recording intervals... More about our weather records

Advertising

Schwerte Weather History for the Previous 24 Hours

Scroll right to see more
 ConditionsComfort  
Time TempWeatherWind HumidityBarometerVisibility
3:20 am
Mon, May 29
64 °FFog.1 mph94%29.95 "HgN/A
2:50 am64 °FFog.2 mph94%29.95 "HgN/A
2:20 am66 °FFog.5 mph88%29.95 "HgN/A
1:50 am66 °FFog.2 mph94%29.98 "HgN/A
1:20 am66 °FClear.5 mph88%29.98 "Hg10 mi
12:50 am68 °FClear.5 mph88%29.98 "Hg10 mi
11:50 pm
Sun, May 28
72 °FLight rain. Partly cloudy.3 mph78%30.01 "HgN/A
11:20 pm72 °FClear.3 mph78%30.01 "Hg10 mi
10:50 pm68 °FClear.3 mph88%30.01 "Hg10 mi
10:20 pm72 °FClear.3 mph78%30.01 "Hg10 mi
9:50 pm72 °FClear.5 mph78%30.01 "Hg10 mi
9:20 pm75 °FSunny.3 mph69%30.01 "Hg10 mi
8:50 pm77 °FPassing clouds.5 mph65%30.01 "HgN/A
8:20 pm77 °FSunny.6 mph65%30.01 "Hg10 mi
7:50 pm79 °FPassing clouds.5 mph61%30.01 "HgN/A
7:20 pm81 °FSunny.6 mph54%30.01 "Hg10 mi
6:50 pm81 °FSunny.7 mph54%30.01 "Hg10 mi
6:20 pm81 °FPassing clouds.5 mph54%30.01 "HgN/A
5:50 pm81 °FPassing clouds.5 mph51%30.04 "HgN/A
5:20 pm82 °FSunny.3 mph48%30.04 "Hg10 mi
4:50 pm81 °FPassing clouds.5 mph51%30.04 "HgN/A
4:20 pm81 °FBroken clouds.7 mph51%30.04 "HgN/A
3:50 pm81 °FPassing clouds.6 mph51%30.04 "HgN/A
3:20 pm81 °FPassing clouds.6 mph51%30.07 "HgN/A
2:50 pm81 °FPartly sunny.3 mph51%30.07 "HgN/A
2:20 pm79 °FPartly sunny.2 mph48%30.07 "HgN/A
1:50 pm77 °FSunny.5 mph57%30.07 "Hg10 mi
1:20 pm75 °FPassing clouds.5 mph65%30.07 "HgN/A
12:50 pm72 °FSunny.10 mph69%30.07 "Hg10 mi
12:20 pm68 °FBroken clouds.8 mph83%30.07 "HgN/A
11:50 am66 °FSprinkles. Broken clouds.7 mph94%30.09 "HgN/A
11:20 am66 °FThundershowers. Broken clouds.7 mph88%30.09 "HgN/A
10:50 am66 °FThundershowers. Broken clouds.9 mph83%30.12 "HgN/A
10:20 am70 °FBroken clouds.8 mph73%30.12 "HgN/A
9:50 am72 °FScattered clouds.3 mph65%30.07 "HgN/A
9:20 am70 °FScattered clouds.2 mph73%30.07 "HgN/A
8:50 am68 °FScattered clouds.3 mph83%30.09 "HgN/A
8:20 am64 °FMild.3 mph88%30.07 "HgN/A
7:50 am66 °FThunderstorms. Broken clouds.3 mph83%30.09 "HgN/A
7:20 am66 °FThundershowers. Broken clouds.5 mph83%30.07 "HgN/A
6:50 am64 °FScattered clouds.2 mph83%30.07 "HgN/A
6:20 am66 °FPartly sunny.5 mph83%30.07 "HgN/A
5:50 am66 °FPartly sunny.6 mph78%30.07 "HgN/A
5:20 am64 °FPassing clouds.3 mph83%30.07 "HgN/A
4:50 am63 °FPassing clouds.2 mph88%30.04 "HgN/A
4:20 am64 °FClear.1 mph83%30.04 "Hg10 mi
Weather by CustomWeather, © 2017

See weather overviewHow to use our weather pages